Vacaville, CA

5:57 AM PDT on May 25, 2017 (GMT -0700)
Nut Tree

Weather History for KVCB - March, 2012

Change the Weather History Date:

Sunday, March 25, 2012

  Actual Average Record
Temperature  
Mean Temperature 50 °F -  
Max Temperature 57 °F 67 °F 85 °F (1988)
Min Temperature 42 °F 43 °F 32 °F (1964)
Degree Days  
Heating Degree Days 16    
Moisture  
Dew Point 42 °F    
Average Humidity 83    
Maximum Humidity 100    
Minimum Humidity 57    
Precipitation  
Precipitation 0.47 in - - ()
Sea Level Pressure  
Sea Level Pressure 29.86 in    
Wind  
Wind Speed 3 mph (South)    
Max Wind Speed 8 mph    
Max Gust Speed -    
Visibility 9 miles    
Events Rain    
Averages and records for this station are not official NWS values.
T = Trace of Precipitation, MM = Missing Value Source: NWS Daily Summary

Daily Weather History Graph

Daily Weather History Graph

Search for Another Location

Airport or City:

Trip Planner

Search our weather history database for the weather conditions in past years. The results will help you decide how hot, cold, wet, or windy it might be!

Date:

Astronomy

Mar. 25, 2012 Rise Set
Actual Time 7:02 AM PDT 7:25 PM PDT
Civil Twilight 6:36 AM PDT 7:51 PM PDT
Nautical Twilight 6:05 AM PDT 8:22 PM PDT
Astronomical Twilight 5:33 AM PDT 8:54 PM PDT
Moon 8:21 AM PDT 10:42 PM PDT
Length of Visible Light 13h 15m
Length of Day
12h 22m
Waxing Crescent, 9% of the Moon is Illuminated
Mar 25
Waxing Crescent
Mar 30
First Quarter
Apr 6
Full
Apr 13
Last Quarter
Apr 21
New

Hourly Weather History & Observations

Time (PDT) Temp. Windchill Dew Point Humidity Pressure Visibility Wind Dir Wind Speed Gust Speed Precip Events Conditions
12:53 AM 43.0 °F 40.3 °F 41.0 °F 93% 29.83 in 5.0 mi North 4.6 mph - 0.13 in Rain Light Rain
1:53 AM 42.1 °F 37.1 °F 41.0 °F 96% 29.82 in 6.0 mi NNW 8.1 mph - 0.11 in Rain Rain
2:53 AM 42.1 °F - 41.0 °F 96% 29.83 in 9.0 mi Calm Calm - 0.09 in Rain Light Rain
3:53 AM 42.1 °F - 41.0 °F 96% 29.82 in 6.0 mi Calm Calm - 0.07 in Rain Light Rain
4:53 AM 43.0 °F - 42.1 °F 97% 29.82 in 9.0 mi Calm Calm - 0.04 in Rain Light Rain
5:53 AM 42.1 °F - 41.0 °F 96% 29.84 in 10.0 mi Calm Calm - 0.02 in Rain Light Rain
6:25 AM 42.8 °F - 41.0 °F 93% 29.84 in 10.0 mi Calm Calm - N/A   Mostly Cloudy
6:53 AM 42.1 °F - 41.0 °F 96% 29.86 in 10.0 mi Calm Calm - N/A   Overcast
7:45 AM 42.8 °F 41.1 °F 41.0 °F 93% 29.88 in 10.0 mi SE 3.5 mph - N/A   Overcast
7:53 AM 42.1 °F 40.2 °F 41.0 °F 96% 29.88 in 10.0 mi SSE 3.5 mph - N/A   Overcast
8:53 AM 43.0 °F 41.3 °F 42.1 °F 97% 29.90 in 2.5 mi ESE 3.5 mph - N/A   Overcast
9:15 AM 42.8 °F 41.1 °F 42.8 °F 100% 29.90 in 1.8 mi ESE 3.5 mph - 0.01 in   Overcast
9:23 AM 42.8 °F - 42.8 °F 100% 29.90 in 2.5 mi Calm Calm - 0.01 in   Overcast
9:53 AM 44.1 °F - 43.0 °F 96% 29.91 in 5.0 mi Calm Calm - 0.01 in   Overcast
10:53 AM 46.0 °F 44.8 °F 43.0 °F 89% 29.90 in 10.0 mi South 3.5 mph - N/A   Overcast
11:02 AM 46.4 °F 44.3 °F 42.8 °F 87% 29.90 in 10.0 mi SSE 4.6 mph - N/A   Overcast
11:22 AM 48.2 °F - 42.8 °F 82% 29.90 in 10.0 mi Calm Calm - N/A   Overcast
11:53 AM 48.9 °F - 43.0 °F 80% 29.89 in 10.0 mi Calm Calm - N/A   Overcast
12:53 PM 50.0 °F - 41.0 °F 71% 29.89 in 10.0 mi Calm Calm - N/A   Overcast
1:53 PM 55.0 °F - 42.1 °F 62% 29.86 in 10.0 mi Calm Calm - N/A   Partly Cloudy
2:53 PM 53.1 °F - 42.1 °F 66% 29.85 in 10.0 mi SE 5.8 mph - N/A   Overcast
3:53 PM 55.9 °F - 42.1 °F 60% 29.83 in 10.0 mi Calm Calm - N/A   Mostly Cloudy
4:53 PM 57.0 °F - 42.1 °F 57% 29.82 in 10.0 mi WNW 3.5 mph - N/A   Clear
5:53 PM 57.0 °F - 42.1 °F 57% 29.81 in 10.0 mi NW 4.6 mph - N/A   Clear
6:53 PM 54.0 °F - 42.1 °F 64% 29.80 in 10.0 mi Calm Calm - N/A   Clear
7:53 PM 52.0 °F - 43.0 °F 71% 29.81 in 10.0 mi SW 4.6 mph - N/A   Clear
8:53 PM 51.1 °F - 43.0 °F 74% 29.83 in 10.0 mi WSW 4.6 mph - N/A   Clear
9:53 PM 50.0 °F - 43.0 °F 77% 29.84 in 10.0 mi Calm Calm - N/A   Overcast
10:53 PM 48.0 °F - 41.0 °F 77% 29.86 in 10.0 mi WSW 4.6 mph - N/A   Clear
11:53 PM 46.9 °F - 39.9 °F 77% 29.88 in 10.0 mi Calm Calm - N/A   Clear